Starlink 6116

operational
NORAD ID: 56911 Int'l Des: 2023-083 Owner: SPXS Country: US Constellation: starlink
LEOCIRCULAR

Starlink 6116について

説明を読み込み中...

リアルタイム位置

3D地球を読み込み中...

次回通過

高度履歴

Altitude vs Time

uPlot chart will show altitude changes over time

軌道要素

1 56911U 23083AM 25305.96712008 -.00002503 00000-0 -17032-3 0 9994
2 56911 43.0027 43.1247 0000804 290.4822 69.5934 15.02523332132604
Epoch: Nov 1, 2025 • Age: 40 hours

現在のステータス

高度 560.1 km
速度 7.58 km/s
衛星直下点 -8.81°S, 115.86°E
打ち上げ日 Jun 12, 2023
運用期間 2.3 years
タイプ internet

技術仕様

分類 Payload
質量 305.00 kg
乾燥質量 290.00 kg
総質量 305.00 kg
長さ 0.20 m
直径 2.80 m
スパン 9.00 m
形状 Box + pan
製造者 SPXS
バスタイプ Starlink
フェーズステータス In Orbit
所有者/国 SPXS/US

大規模コンステレーション

Loading constellations...